Weather History for Washington, IA

Change the Weather History Date:

Thursday, November 10, 2011

  Actual Average Record
Temperature  
Mean Temperature 36 °F -  
Max Temperature 41 °F 49 °F 73 °F (2010)
Min Temperature 30 °F 32 °F 19 °F (2008)
Degree Days  
Heating Degree Days 30    
Moisture  
Dew Point 26 °F    
Average Humidity 66    
Maximum Humidity 75    
Minimum Humidity 56    
Precipitation  
Precipitation 0.00 in - - ()
Sea Level Pressure  
Sea Level Pressure 30.11 in    
Wind  
Wind Speed 13 mph (West)    
Max Wind Speed 22 mph    
Max Gust Speed 30 mph    
Visibility 10 miles    
Events      
Averages and records for this station are not official NWS values.
T = Trace of Precipitation, MM = Missing Value Source: NWS Daily Summary

Daily Weather History Graph

Daily Weather History Graph

Search for Another Location

Airport:

Trip Planner

Search our weather history database for the weather conditions in past years. The results will help you decide how hot, cold, wet, or windy it might be!

Date:

Astronomy

Nov. 10, 2011 Rise Set
Actual Time 6:48 AM CST 4:52 PM CST
Civil Twilight 6:19 AM CST 5:21 PM CST
Nautical Twilight 5:46 AM CST 5:54 PM CST
Astronomical Twilight 5:13 AM CST 6:26 PM CST
Moon 4:39 PM CST (11/10) 6:41 AM CST (11/10)
Length of Visible Light 11h 02m
Length of Day
10h 03m
Full, 100% of the Moon is Illuminated
Nov 10
Full
Nov 10
Full
Nov 18
Last Quarter
Nov 25
New
Dec 2
First Quarter

Hourly Weather History & Observations

Time (CST) Temp. Windchill Dew Point Humidity Pressure Visibility Wind Dir Wind Speed Gust Speed Precip Events Conditions
12:15 AM 33.8 °F 26.4 °F 24.8 °F 70% 30.10 in 10.0 mi West 9.2 mph - N/A   Clear
12:35 AM 33.8 °F 25.8 °F 24.8 °F 70% 30.10 in 10.0 mi West 10.4 mph - N/A   Clear
1:15 AM 33.8 °F 26.4 °F 24.8 °F 70% 30.10 in 10.0 mi West 9.2 mph - N/A   Clear
1:35 AM 33.8 °F 25.8 °F 24.8 °F 70% 30.10 in 10.0 mi West 10.4 mph - N/A   Clear
1:55 AM 33.8 °F 26.4 °F 24.8 °F 70% 30.09 in 10.0 mi West 9.2 mph - N/A   Clear
2:15 AM 33.8 °F 25.3 °F 24.8 °F 70% 30.09 in 10.0 mi West 11.5 mph - N/A   Scattered Clouds
2:35 AM 33.8 °F 25.3 °F 24.8 °F 70% 30.09 in 10.0 mi West 11.5 mph - N/A   Scattered Clouds
2:55 AM 33.8 °F 25.8 °F 24.8 °F 70% 30.09 in 10.0 mi West 10.4 mph 17.3 mph N/A   Clear
3:15 AM 33.8 °F 25.3 °F 24.8 °F 70% 30.08 in 10.0 mi West 11.5 mph - N/A   Clear
3:35 AM 33.8 °F 24.8 °F 24.8 °F 70% 30.08 in 10.0 mi West 12.7 mph - N/A   Mostly Cloudy
3:55 AM 33.8 °F 24.8 °F 24.8 °F 70% 30.08 in 10.0 mi West 12.7 mph 18.4 mph N/A   Overcast
4:15 AM 33.8 °F 24.3 °F 24.8 °F 70% 30.08 in 10.0 mi West 13.8 mph 19.6 mph N/A   Mostly Cloudy
4:35 AM 33.8 °F 24.3 °F 24.8 °F 70% 30.08 in 10.0 mi West 13.8 mph - N/A   Scattered Clouds
4:55 AM 32.0 °F 22.5 °F 24.8 °F 75% 30.08 in 10.0 mi WNW 12.7 mph 18.4 mph N/A   Clear
5:15 AM 33.8 °F 25.3 °F 24.8 °F 70% 30.08 in 10.0 mi West 11.5 mph 18.4 mph N/A   Clear
5:55 AM 32.0 °F 22.1 °F 24.8 °F 75% 30.08 in 10.0 mi West 13.8 mph - N/A   Clear
6:15 AM 32.0 °F 22.1 °F 24.8 °F 75% 30.09 in 10.0 mi West 13.8 mph - N/A   Clear
6:35 AM 32.0 °F 22.1 °F 24.8 °F 75% 30.09 in 10.0 mi West 13.8 mph - N/A   Clear
7:35 AM 32.0 °F 22.1 °F 24.8 °F 75% 30.10 in 10.0 mi West 13.8 mph 18.4 mph N/A   Clear
7:55 AM 33.8 °F 23.9 °F 24.8 °F 70% 30.11 in 10.0 mi West 15.0 mph 19.6 mph N/A   Clear
8:35 AM 33.8 °F 22.8 °F 24.8 °F 70% 30.12 in 10.0 mi WNW 18.4 mph 23.0 mph N/A   Clear
8:55 AM 35.6 °F 24.5 °F 24.8 °F 65% 30.12 in 10.0 mi WNW 20.7 mph 26.5 mph N/A   Clear
9:35 AM 35.6 °F 24.5 °F 26.6 °F 70% 30.12 in 10.0 mi WNW 20.7 mph 27.6 mph N/A   Clear
9:55 AM 37.4 °F 26.9 °F 26.6 °F 65% 30.13 in 10.0 mi WNW 20.7 mph 26.5 mph N/A   Clear
10:15 AM 37.4 °F 26.6 °F 26.6 °F 65% 30.13 in 10.0 mi WNW 21.9 mph 29.9 mph N/A   Scattered Clouds
10:35 AM 39.2 °F 29.0 °F 26.6 °F 61% 30.13 in 10.0 mi WNW 21.9 mph 25.3 mph N/A   Scattered Clouds
10:55 AM 39.2 °F 29.0 °F 26.6 °F 61% 30.13 in 10.0 mi WNW 21.9 mph - N/A   Scattered Clouds
11:15 AM 39.2 °F 29.8 °F 26.6 °F 61% 30.14 in 10.0 mi WNW 18.4 mph 27.6 mph N/A   Scattered Clouds
11:35 AM 39.2 °F 29.8 °F 28.4 °F 65% 30.13 in 10.0 mi WNW 18.4 mph 26.5 mph N/A   Mostly Cloudy
11:55 AM 39.2 °F 29.3 °F 26.6 °F 61% 30.13 in 10.0 mi WNW 20.7 mph 26.5 mph N/A   Mostly Cloudy
12:15 PM 41.0 °F 32.2 °F 26.6 °F 57% 30.12 in 10.0 mi NW 18.4 mph 25.3 mph N/A   Overcast
12:35 PM 39.2 °F 29.0 °F 26.6 °F 61% 30.12 in 10.0 mi WNW 21.9 mph - N/A   Mostly Cloudy
12:55 PM 39.2 °F 30.5 °F 26.6 °F 61% 30.12 in 10.0 mi West 16.1 mph - N/A   Mostly Cloudy
1:15 PM 41.0 °F 31.6 °F 26.6 °F 57% 30.11 in 10.0 mi WNW 20.7 mph 26.5 mph N/A   Mostly Cloudy
1:35 PM 41.0 °F 32.2 °F 26.6 °F 57% 30.11 in 10.0 mi WNW 18.4 mph 23.0 mph N/A   Mostly Cloudy
1:55 PM 41.0 °F 32.2 °F 26.6 °F 57% 30.11 in 10.0 mi WNW 18.4 mph 26.5 mph N/A   Mostly Cloudy
2:15 PM 39.2 °F 29.3 °F 26.6 °F 61% 30.12 in 10.0 mi WNW 20.7 mph 25.3 mph N/A   Mostly Cloudy
2:35 PM 41.0 °F 32.2 °F 26.6 °F 57% 30.12 in 10.0 mi WNW 18.4 mph - N/A   Overcast
2:55 PM 39.2 °F 29.8 °F 24.8 °F 56% 30.12 in 10.0 mi WNW 18.4 mph 26.5 mph N/A   Overcast
3:15 PM 39.2 °F 29.8 °F 24.8 °F 56% 30.12 in 10.0 mi WNW 18.4 mph - N/A   Overcast
3:35 PM 39.2 °F 30.2 °F 24.8 °F 56% 30.12 in 10.0 mi NW 17.3 mph 23.0 mph N/A   Overcast
3:55 PM 39.2 °F 30.8 °F 26.6 °F 61% 30.13 in 10.0 mi WNW 15.0 mph 18.4 mph N/A   Mostly Cloudy
4:15 PM 39.2 °F 32.5 °F 26.6 °F 61% 30.13 in 10.0 mi WNW 10.4 mph - N/A   Overcast
4:35 PM 39.2 °F 34.2 °F 26.6 °F 61% 30.13 in 10.0 mi West 6.9 mph - N/A   Overcast
4:55 PM 39.2 °F 35.9 °F 26.6 °F 61% 30.13 in 10.0 mi West 4.6 mph - N/A   Overcast
5:15 PM 39.2 °F 35.0 °F 26.6 °F 61% 30.12 in 10.0 mi West 5.8 mph - N/A   Overcast
5:35 PM 37.4 °F 32.8 °F 26.6 °F 65% 30.12 in 10.0 mi West 5.8 mph - N/A   Overcast
5:55 PM 37.4 °F 32.1 °F 26.6 °F 65% 30.12 in 10.0 mi West 6.9 mph - N/A   Overcast
6:15 PM 37.4 °F 32.8 °F 26.6 °F 65% 30.12 in 10.0 mi WSW 5.8 mph - N/A   Overcast
6:35 PM 35.6 °F 29.2 °F 24.8 °F 65% 30.11 in 10.0 mi West 8.1 mph - N/A   Scattered Clouds
6:55 PM 33.8 °F 27.7 °F 24.8 °F 70% 30.11 in 10.0 mi WSW 6.9 mph - N/A   Clear
7:15 PM 33.8 °F 27.7 °F 24.8 °F 70% 30.11 in 10.0 mi WSW 6.9 mph - N/A   Clear
7:35 PM 33.8 °F 27.0 °F 24.8 °F 70% 30.11 in 10.0 mi WSW 8.1 mph - N/A   Clear
7:55 PM 32.0 °F 25.6 °F 24.8 °F 75% 30.11 in 10.0 mi WSW 6.9 mph - N/A   Clear
8:15 PM 32.0 °F 25.6 °F 24.8 °F 75% 30.11 in 10.0 mi WSW 6.9 mph - N/A   Clear
8:35 PM 30.2 °F 25.4 °F 23.0 °F 75% 30.10 in 10.0 mi WSW 4.6 mph - N/A   Clear
8:55 PM 30.2 °F 24.3 °F 23.0 °F 75% 30.10 in 10.0 mi WSW 5.8 mph - N/A   Clear
9:15 PM 30.2 °F 24.3 °F 23.0 °F 75% 30.10 in 10.0 mi WSW 5.8 mph - N/A   Clear
9:35 PM 30.2 °F 23.4 °F 24.8 °F 80% 30.11 in 10.0 mi WSW 6.9 mph - N/A   Clear
9:55 PM 30.2 °F 23.4 °F 23.0 °F 75% 30.10 in 10.0 mi WSW 6.9 mph - N/A   Clear
10:15 PM 30.2 °F 24.3 °F 23.0 °F 75% 30.10 in 10.0 mi West 5.8 mph - N/A   Clear
10:35 PM 28.4 °F 22.2 °F 21.2 °F 74% 30.09 in 10.0 mi WSW 5.8 mph - N/A   Clear
10:55 PM 28.4 °F 22.2 °F 21.2 °F 74% 30.09 in 10.0 mi WSW 5.8 mph - N/A   Clear
11:15 PM 28.4 °F 22.2 °F 21.2 °F 74% 30.09 in 10.0 mi WSW 5.8 mph - N/A   Clear
11:35 PM 28.4 °F 22.2 °F 21.2 °F 74% 30.08 in 10.0 mi WSW 5.8 mph - N/A   Clear